Auburn, IN

7:51 AM EST on November 15, 2019 (GMT -0500)
Auburn

Weather History for KGWB - October, 2019

Change the Weather History Date:

Monday, October 21, 2019

  Actual Average (WUND) Record (WUND)
Temperature  
Mean Temperature 56 °F -  
Max Temperature 60 °F - - (-1)
Min Temperature 51 °F - - (-1)
Degree Days  
Heating Degree Days 10    
Growing Degree Days 6 (Base 50)    
Moisture  
Dew Point 53 °F    
Average Humidity 87    
Maximum Humidity 100    
Minimum Humidity 72    
Precipitation  
Precipitation 0.68 in - - ()
Sea Level Pressure  
Sea Level Pressure 29.76 in    
Wind  
Wind Speed 6 mph (SE)    
Max Wind Speed 13 mph    
Max Gust Speed 28 mph    
Visibility 9 miles    
Events Rain    
Averages and records for this station are not official NWS values.
T = Trace of Precipitation, MM = Missing Value Source: NWS Daily Summary

Daily Weather History Graph

Daily Weather History Graph

Search for Another Location

Airport or City:

Astronomy

Oct. 21, 2019 Rise Set
Actual Time 7:58 AM EDT 6:50 PM EDT
Civil Twilight 7:30 AM EDT 7:18 PM EDT
Nautical Twilight 6:58 AM EDT 7:50 PM EDT
Astronomical Twilight 6:26 AM EDT 8:22 PM EDT
Moon No Moon Rise 3:18 PM EDT (10/21)
Length of Visible Light 11h 48m
Length of Day
10h 52m
Waning Gibbous, 48% of the Moon is Illuminated
Oct 21
Waning Gibbous
Oct 27
New
Nov 4
First Quarter
Nov 12
Full
Nov 19
Last Quarter

Hourly Weather History & Observations

Time (EDT) Temp. Dew Point Humidity Pressure Visibility Wind Dir Wind Speed Gust Speed Precip Events Conditions
12:15 AM 51.8 °F 50.0 °F 94% 29.95 in 10.0 mi East 4.6 mph - N/A   Overcast
12:35 AM 53.6 °F 50.0 °F 88% 29.94 in 10.0 mi East 3.5 mph - N/A   Overcast
12:55 AM 53.6 °F 50.0 °F 88% 29.94 in 10.0 mi East 4.6 mph - N/A   Overcast
1:15 AM 55.4 °F 48.2 °F 77% 29.93 in 10.0 mi East 4.6 mph - N/A   Overcast
1:35 AM 55.4 °F 46.4 °F 72% 29.93 in 10.0 mi East 4.6 mph - N/A   Overcast
1:55 AM 55.4 °F 46.4 °F 72% 29.92 in 10.0 mi East 4.6 mph - N/A   Overcast
2:15 AM 55.4 °F 46.4 °F 72% 29.92 in 10.0 mi ESE 4.6 mph - N/A   Overcast
2:35 AM 55.4 °F 46.4 °F 72% 29.92 in 10.0 mi ESE 3.5 mph - N/A   Overcast
2:55 AM 55.4 °F 46.4 °F 72% 29.91 in 10.0 mi ESE 4.6 mph - N/A   Overcast
3:15 AM 55.4 °F 46.4 °F 72% 29.90 in 10.0 mi East 6.9 mph - N/A   Mostly Cloudy
3:35 AM 55.4 °F 46.4 °F 72% 29.90 in 10.0 mi ESE 3.5 mph - N/A   Overcast
3:55 AM 55.4 °F 46.4 °F 72% 29.89 in 10.0 mi East 6.9 mph - N/A   Overcast
4:15 AM 55.4 °F 46.4 °F 72% 29.91 in 10.0 mi ESE 4.6 mph - N/A   Mostly Cloudy
4:35 AM 55.4 °F 46.4 °F 72% 29.90 in 10.0 mi East 5.8 mph - N/A   Mostly Cloudy
4:55 AM 55.4 °F 46.4 °F 72% 29.90 in 10.0 mi East 4.6 mph - N/A   Overcast
5:15 AM 55.4 °F 46.4 °F 72% 29.90 in 10.0 mi East 5.8 mph - N/A   Mostly Cloudy
5:35 AM 53.6 °F 46.4 °F 77% 29.90 in 10.0 mi East 4.6 mph - N/A   Overcast
5:55 AM 53.6 °F 46.4 °F 77% 29.89 in 10.0 mi East 4.6 mph - N/A   Overcast
6:15 AM 53.6 °F 46.4 °F 77% 29.88 in 10.0 mi East 5.8 mph - N/A   Overcast
6:35 AM 53.6 °F 46.4 °F 77% 29.87 in 10.0 mi East 8.1 mph - N/A   Mostly Cloudy
6:55 AM 53.6 °F 46.4 °F 77% 29.86 in 10.0 mi East 5.8 mph - N/A   Mostly Cloudy
7:15 AM 53.6 °F 46.4 °F 77% 29.84 in 10.0 mi East 5.8 mph - N/A   Mostly Cloudy
7:35 AM 53.6 °F 48.2 °F 82% 29.84 in 10.0 mi East 5.8 mph - N/A   Mostly Cloudy
8:15 AM 53.6 °F 50.0 °F 88% 29.84 in 10.0 mi East 4.6 mph - N/A   Overcast
8:35 AM 53.6 °F 50.0 °F 88% 29.84 in 10.0 mi East 5.8 mph - N/A   Overcast
8:55 AM 53.6 °F 50.0 °F 88% 29.83 in 10.0 mi ESE 5.8 mph - N/A   Mostly Cloudy
9:15 AM 53.6 °F 51.8 °F 94% 29.83 in 10.0 mi ESE 5.8 mph - N/A   Mostly Cloudy
9:35 AM 53.6 °F 51.8 °F 94% 29.82 in 10.0 mi East 5.8 mph - N/A   Mostly Cloudy
9:55 AM 55.4 °F 51.8 °F 88% 29.81 in 10.0 mi ESE 5.8 mph - N/A   Overcast
10:15 AM 55.4 °F 53.6 °F 94% 29.79 in 10.0 mi ESE 8.1 mph - N/A   Overcast
10:35 AM 55.4 °F 53.6 °F 94% 29.79 in 10.0 mi ESE 9.2 mph - N/A   Overcast
10:55 AM 55.4 °F 55.4 °F 100% 29.78 in 10.0 mi ESE 8.1 mph 17.3 mph N/A   Overcast
11:15 AM 57.2 °F 55.4 °F 94% 29.80 in 7.0 mi SE 5.8 mph - N/A Rain Rain
11:55 AM 57.2 °F 55.4 °F 94% 29.78 in 5.0 mi SE 6.9 mph - 0.04 in Rain Rain
12:15 PM 57.2 °F 55.4 °F 94% 29.72 in 5.0 mi ESE 10.4 mph 19.6 mph 0.05 in Rain Rain
12:35 PM 57.2 °F 55.4 °F 94% 29.71 in 5.0 mi ESE 12.7 mph 21.9 mph 0.09 in Rain Light Rain
12:55 PM 57.2 °F 55.4 °F 94% 29.71 in 7.0 mi SE 6.9 mph 17.3 mph 0.11 in Rain Light Rain
1:15 PM 57.2 °F 55.4 °F 94% 29.72 in 2.0 mi SE 9.2 mph - 0.09 in Rain Rain
1:35 PM 57.2 °F 57.2 °F 100% 29.69 in 5.0 mi SE 8.1 mph 17.3 mph 0.13 in Rain Light Rain
1:55 PM 59.0 °F 57.2 °F 94% 29.68 in 7.0 mi SE 9.2 mph 18.4 mph 0.15 in Rain Rain
2:15 PM 59.0 °F 57.2 °F 94% 29.67 in 7.0 mi SE 6.9 mph 18.4 mph 0.01 in Rain Light Rain
2:35 PM 59.0 °F 57.2 °F 94% 29.67 in 10.0 mi SSE 4.6 mph - 0.01 in   Drizzle
2:55 PM 59.0 °F 57.2 °F 94% 29.65 in 4.0 mi SE 5.8 mph - 0.05 in Rain Rain
3:15 PM 59.0 °F 57.2 °F 94% 29.64 in 7.0 mi SE 6.9 mph - N/A   Light Drizzle
3:35 PM 59.0 °F 57.2 °F 94% 29.64 in 10.0 mi SE 8.1 mph - N/A   Overcast
3:55 PM 59.0 °F 59.0 °F 100% 29.63 in 10.0 mi SSE 3.5 mph 20.7 mph 0.01 in Rain Rain
4:15 PM 59.0 °F 59.0 °F 100% 29.63 in 10.0 mi SSE 6.9 mph - N/A   Overcast
4:35 PM 60.8 °F 59.0 °F 94% 29.64 in 10.0 mi South 4.6 mph - N/A   Overcast
4:55 PM 60.8 °F 59.0 °F 94% 29.64 in 10.0 mi SE 3.5 mph - N/A   Overcast
5:15 PM 60.8 °F 59.0 °F 94% 29.63 in 10.0 mi SE 4.6 mph - N/A   Overcast
5:35 PM 60.8 °F 59.0 °F 94% 29.62 in 10.0 mi ESE 3.5 mph - N/A   Mostly Cloudy
5:55 PM 60.8 °F 59.0 °F 94% 29.61 in 7.0 mi SE 4.6 mph - N/A Rain Rain
6:15 PM 60.8 °F 60.8 °F 100% 29.60 in 10.0 mi Calm Calm - 0.01 in   Drizzle
6:35 PM 60.8 °F 60.8 °F 100% 29.60 in 10.0 mi SE 3.5 mph - 0.01 in Rain Rain
7:15 PM 60.8 °F 59.0 °F 94% 29.62 in 4.0 mi SSW 12.7 mph 26.5 mph 0.12 in Rain Rain
7:35 PM 60.8 °F 59.0 °F 94% 29.62 in 5.0 mi SSW 9.2 mph 24.2 mph 0.20 in Rain Rain
7:55 PM 60.8 °F 59.0 °F 94% 29.63 in 7.0 mi SSW 11.5 mph 27.6 mph 0.25 in Rain Light Rain
8:15 PM 60.8 °F 59.0 °F 94% 29.63 in 5.0 mi SSW 11.5 mph 20.7 mph 0.04 in Rain Heavy Rain
8:35 PM 60.8 °F 59.0 °F 94% 29.63 in 10.0 mi SSW 9.2 mph 17.3 mph 0.06 in   Overcast
8:55 PM 60.8 °F 59.0 °F 94% 29.63 in 10.0 mi SSW 10.4 mph 17.3 mph 0.06 in   Scattered Clouds
9:15 PM 60.8 °F 59.0 °F 94% 29.64 in 10.0 mi SSW 5.8 mph - N/A   Clear
9:35 PM 60.8 °F 59.0 °F 94% 29.64 in 10.0 mi South 6.9 mph - N/A   Scattered Clouds
9:55 PM 60.8 °F 59.0 °F 94% 29.64 in 10.0 mi SSW 6.9 mph - N/A   Scattered Clouds
10:15 PM 60.8 °F 57.2 °F 88% 29.64 in 10.0 mi SSW 9.2 mph - N/A   Clear
10:35 PM 60.8 °F 57.2 °F 88% 29.64 in 10.0 mi SSW 5.8 mph - N/A   Clear
10:55 PM 60.8 °F 57.2 °F 88% 29.65 in 10.0 mi SSW 6.9 mph - N/A   Clear
11:15 PM 60.8 °F 55.4 °F 82% 29.65 in 10.0 mi SSW 9.2 mph 16.1 mph N/A   Clear
11:35 PM 60.8 °F 55.4 °F 82% 29.68 in 10.0 mi WSW 12.7 mph 24.2 mph N/A   Scattered Clouds
11:55 PM 55.4 °F 48.2 °F 77% 29.68 in 10.0 mi WSW 8.1 mph 16.1 mph N/A   Mostly Cloudy